EW9174 Weather Reports


Display with metric or nautical units.
time (UTC)temp
F
wind
direction
speed
MPH
gust
MPH
rain 1hr
in
rain 24hr
in
rain mn
in
humidity
%
barometer
mb
20260901120024 64 50 0.0 0.0 0.00 0.00 0.00 86 1007.8
20260901114522 64 50 0.0 0.0 0.00 0.00 0.00 86 1008.0
20260901113023 64 50 0.0 1.0 0.00 0.00 0.00 85 1007.7
20260901111523 64 50 0.0 3.0 0.00 0.00 0.00 84 1007.6
20260901110022 64 51 0.0 3.0 0.00 0.00 0.00 85 1007.5
20260901104529 64 51 1.0 4.0 0.00 0.00 0.00 85 1007.0
20260901103018 64 53 1.0 4.0 0.00 0.00 0.00 86 1007.2
20260901094507 65 80 0.0 2.0 0.00 0.00 0.00 83 1008.4
20260901093004 65 80 0.0 0.0 0.00 0.00 0.00 80 1008.5
20260901091503 66 80 0.0 0.0 0.00 0.00 0.00 80 1008.3
20260901090006 66 80 0.0 0.0 0.00 0.00 0.00 83 1008.3
20260901084602 66 80 0.0 1.0 0.00 0.00 0.00 80 1008.3
20260901083100 66 80 0.0 0.0 0.00 0.00 0.00 79 1008.3
20260901081558 66 80 0.0 0.0 0.00 0.00 0.00 78 1008.1
20260901074610 67 80 0.0 1.0 0.00 0.00 0.00 75 1008.4
20260901073052 67 80 0.0 1.0 0.00 0.00 0.00 73 1008.6
20260901071552 67 80 0.0 1.0 0.00 0.00 0.00 73 1008.8
20260901070056 67 80 0.0 1.0 0.00 0.00 0.00 74 1008.8
20260901064549 67 80 0.0 0.0 0.00 0.00 0.00 72 1008.6
20260901063051 68 80 0.0 0.0 0.00 0.00 0.00 70 1008.5
20260901061544 68 80 0.0 1.0 0.00 0.00 0.00 70 1008.2
20260901060040 68 80 0.0 1.0 0.00 0.00 0.00 68 1007.8
20260901054540 69 80 0.0 1.0 0.00 0.00 0.00 66 1008.2
20260901053051 69 80 0.0 0.0 0.00 0.00 0.00 65 1008.4
20260901051556 69 80 0.0 1.0 0.00 0.00 0.00 64 1007.7
20260901050037 69 80 0.0 0.0 0.00 0.00 0.00 63 1008.6
20260901044536 69 80 0.0 0.0 0.00 0.00 0.00 62 1008.5
20260901043040 70 80 0.0 0.0 0.00 0.00 0.00 62 1008.6
20260901041550 71 80 0.0 0.0 0.00 0.00 0.00 62 1008.7
20260901040036 71 80 0.0 0.0 0.00 0.00 0.00 61 1008.7
20260901034535 71 80 0.0 0.0 0.00 0.00 0.00 60 1009.1
20260901033034 71 80 0.0 2.0 0.00 0.00 0.00 58 1009.6
20260901031550 71 80 0.0 3.0 0.00 0.00 0.00 59 1009.1
20260901030033 71 80 0.0 3.0 0.00 0.00 0.00 59 1008.9
20260901024532 71 80 0.0 0.0 0.00 0.00 0.00 61 1008.3
20260901023029 71 80 0.0 0.0 0.00 0.00 0.00 60 1007.6
20260901021533 72 80 0.0 1.0 0.00 0.00 0.00 60 1007.3
20260901020027 72 80 0.0 0.0 0.00 0.00 0.00 60 1007.0
20260901014539 72 80 0.0 1.0 0.00 0.00 0.00 60 1006.7
20260901013026 73 80 0.0 1.0 0.00 0.00 0.00 60 1006.6
20260901011529 74 80 0.0 1.0 0.00 0.00 0.00 59 1006.8
20260901010026 75 81 0.0 2.0 0.00 0.00 0.00 58 1006.4
20260901004524 77 360 0.0 1.0 0.00 0.00 0.00 53 1006.3
20260901003031 80 360 0.0 0.0 0.00 0.00 0.00 48 1005.9
20260901001524 80 360 0.0 1.0 0.00 0.00 0.00 45 1005.5
20260901000025 80 360 0.0 0.0 0.00 0.00 0.00 46 1005.9
20260831234523 80 360 0.0 1.0 0.00 0.00 0.00 47 1005.7
20260831233020 80 360 0.0 1.0 0.00 0.00 0.00 46 1005.7
20260831231518 80 360 0.0 1.0 0.00 0.00 0.00 45 1006.1
20260831230019 82 360 0.0 2.0 0.00 0.00 0.00 42 1006.4
20260831224514 84 360 0.0 2.0 0.00 0.00 0.00 40 1006.6
20260831223013 85 225 0.0 0.0 0.00 0.00 0.00 36 1006.9
20260831221511 86 225 0.0 1.0 0.00 0.00 0.00 35 1007.1
20260831220013 87 225 0.0 1.0 0.00 0.00 0.00 34 1007.0
20260831214519 87 225 0.0 1.0 0.00 0.00 0.00 36 1007.0
20260831213008 87 225 0.0 1.0 0.00 0.00 0.00 33 1007.1
20260831211512 87 225 0.0 1.0 0.00 0.00 0.00 31 1007.2
20260831210005 87 223 0.0 3.0 0.00 0.00 0.00 33 1007.4
20260831204507 87 213 0.0 4.0 0.00 0.00 0.00 30 1007.6
20260831203003 88 342 0.0 3.0 0.00 0.00 0.00 28 1007.5
20260831201503 88 278 1.0 7.0 0.00 0.00 0.00 27 1007.5
20260831200002 88 21 1.0 5.0 0.00 0.00 0.00 27 1007.6
20260831194504 89 208 1.0 6.0 0.00 0.00 0.00 27 1007.7
20260831193001 89 22 1.0 6.0 0.00 0.00 0.00 28 1007.6
20260831191558 88 32 0.0 2.0 0.00 0.00 0.00 34 1007.8
20260831190055 87 31 0.0 1.0 0.00 0.00 0.00 35 1008.0
20260831184551 85 31 0.0 1.0 0.00 0.00 0.00 38 1008.4
20260831183046 83 31 0.0 0.0 0.00 0.00 0.00 46 1008.7
20260831181548 81 31 0.0 0.0 0.00 0.00 0.00 43 1008.9
20260831180043 81 31 0.0 0.0 0.00 0.00 0.00 50 1009.2
20260831174537 80 31 0.0 1.0 0.00 0.00 0.00 45 1009.3
20260831173033 79 31 0.0 1.0 0.00 0.00 0.00 44 1009.4
20260831171531 78 31 0.0 2.0 0.00 0.00 0.00 45 1009.6
20260831170032 77 31 0.0 3.0 0.00 0.00 0.00 47 1009.6
20260831164528 76 31 0.0 2.0 0.00 0.00 0.00 48 1009.7
20260831163022 75 31 0.0 2.0 0.00 0.00 0.00 53 1009.7
20260831161520 74 31 0.0 3.0 0.00 0.00 0.00 54 1009.8
20260831160016 72 31 0.0 2.0 0.00 0.00 0.00 58 1009.8
20260831154509 71 31 1.0 3.0 0.00 0.00 0.00 62 1009.6
20260831153005 69 32 0.0 1.0 0.00 0.00 0.00 67 1009.8
20260831151507 67 32 0.0 2.0 0.00 0.00 0.00 67 1009.7
20260831150004 66 32 0.0 2.0 0.00 0.00 0.00 69 1009.4
20260831144504 65 31 0.0 2.0 0.00 0.00 0.00 69 1009.9
20260831143002 64 32 0.0 4.0 0.00 0.00 0.00 70 1009.8
20260831141501 63 34 1.0 5.0 0.00 0.00 0.00 73 1009.7
20260831134602 61 22 0.0 2.0 0.00 0.00 0.00 78 1009.7
20260831133057 60 22 0.0 2.0 0.00 0.00 0.00 79 1009.3
20260831131603 60 22 0.0 2.0 0.00 0.00 0.00 78 1009.3
20260831130057 60 20 1.0 3.0 0.00 0.00 0.00 78 1009.0
20260831124602 60 22 0.0 1.0 0.00 0.00 0.00 80 1008.8
20260831123054 60 22 0.0 0.0 0.00 0.00 0.00 82 1008.5
20260831121603 60 22 0.0 0.0 0.00 0.00 0.00 83 1008.6